Precipitable_Water
0.61 0.59 0.55 0.49 0.30 0.30 0.32 0.38 0.38 0.31 0.29 0.32 0.33 0.30 0.27 0.30 0.33 0.39 0.72 0.73 0.75 0.77 0.77 0.85 0.81 0.88 0.94 0.88 0.83 0.82 0.83 0.84 0.79 0.81 0.79 0.79 0.81 0.75 0.71 0.76 0.79 0.85 1.00 1.17 1.11 1.01 0.96 1.06 1.12
0.53 0.51 0.50 0.43 0.26 0.23 0.29 0.41 0.34 0.31 0.33 0.34 0.30 0.30 0.29 0.30 0.47 0.55 0.61 0.75 0.73 0.72 0.86 0.87 0.82 0.87 0.94 0.86 0.82 0.82 0.81 0.78 0.77 0.74 0.75 0.76 0.77 0.74 0.72 0.76 0.82 0.93 1.05 1.16 1.16 1.00 0.94 0.98 1.05
0.50 0.50 0.38 0.30 0.22 0.20 0.30 0.37 0.34 0.31 0.33 0.28 0.24 0.32 0.32 0.34 0.50 0.60 0.71 0.76 0.69 0.78 0.83 0.83 0.87 0.86 0.93 0.85 0.82 0.79 0.78 0.75 0.73 0.73 0.73 0.71 0.73 0.70 0.72 0.76 0.85 0.96 1.02 1.07 1.05 0.96 0.95 0.96 1.01
0.39 0.34 0.28 0.19 0.17 0.21 0.29 0.34 0.33 0.29 0.29 0.29 0.29 0.24 0.36 0.57 0.55 0.66 0.75 0.75 0.68 0.74 0.79 0.84 0.91 0.89 0.90 0.83 0.80 0.77 0.73 0.73 0.72 0.69 0.68 0.69 0.69 0.67 0.72 0.77 0.88 0.96 0.99 0.98 0.96 0.91 0.88 0.95 0.99
0.37 0.31 0.20 0.16 0.18 0.22 0.24 0.29 0.34 0.29 0.27 0.30 0.29 0.28 0.36 0.55 0.68 0.68 0.70 0.71 0.65 0.75 0.77 0.84 0.96 0.91 0.87 0.81 0.79 0.75 0.71 0.72 0.71 0.67 0.67 0.66 0.67 0.66 0.72 0.84 0.92 0.93 0.97 0.95 0.93 0.89 0.88 0.93 0.96
0.26 0.27 0.16 0.13 0.15 0.19 0.24 0.28 0.33 0.30 0.28 0.29 0.29 0.32 0.41 0.60 0.63 0.67 0.70 0.67 0.71 0.71 0.78 0.89 0.95 0.87 0.83 0.78 0.76 0.71 0.69 0.68 0.69 0.69 0.70 0.69 0.66 0.68 0.73 0.86 0.92 0.91 0.90 0.92 0.89 0.86 0.87 0.91 0.94
0.28 0.21 0.16 0.16 0.16 0.18 0.21 0.29 0.29 0.27 0.28 0.25 0.33 0.27 0.42 0.54 0.66 0.72 0.70 0.67 0.72 0.74 0.78 0.86 0.87 0.81 0.76 0.74 0.70 0.63 0.63 0.63 0.59 0.59 0.61 0.65 0.65 0.70 0.72 0.80 0.82 0.86 0.81 0.83 0.85 0.84 0.84 0.91 0.92
0.30 0.25 0.18 0.17 0.16 0.16 0.23 0.25 0.28 0.28 0.27 0.34 0.33 0.26 0.31 0.53 0.68 0.71 0.71 0.70 0.77 0.75 0.83 0.80 0.78 0.74 0.70 0.68 0.63 0.53 0.51 0.49 0.46 0.50 0.56 0.60 0.62 0.67 0.69 0.69 0.72 0.78 0.78 0.81 0.84 0.82 0.84 0.87 0.90
0.33 0.20 0.18 0.19 0.18 0.19 0.24 0.22 0.28 0.31 0.29 0.30 0.31 0.34 0.46 0.61 0.67 0.65 0.65 0.67 0.70 0.72 0.72 0.71 0.67 0.68 0.67 0.60 0.51 0.47 0.35 0.33 0.38 0.45 0.52 0.58 0.63 0.65 0.64 0.62 0.60 0.63 0.68 0.69 0.73 0.78 0.80 0.84 0.91
0.27 0.21 0.22 0.26 0.24 0.22 0.23 0.24 0.25 0.26 0.27 0.28 0.32 0.41 0.57 0.61 0.61 0.57 0.58 0.58 0.64 0.66 0.69 0.66 0.65 0.64 0.59 0.50 0.46 0.39 0.35 0.34 0.34 0.42 0.50 0.56 0.56 0.56 0.57 0.54 0.55 0.58 0.59 0.65 0.74 0.75 0.75 0.78 0.83
0.27 0.21 0.26 0.23 0.26 0.26 0.24 0.24 0.27 0.25 0.24 0.29 0.29 0.40 0.53 0.56 0.58 0.57 0.58 0.61 0.63 0.67 0.66 0.67 0.65 0.63 0.55 0.43 0.42 0.36 0.35 0.33 0.32 0.34 0.41 0.49 0.51 0.52 0.53 0.47 0.40 0.48 0.58 0.64 0.69 0.68 0.68 0.70 0.77
0.22 0.24 0.25 0.26 0.27 0.25 0.23 0.26 0.23 0.26 0.29 0.32 0.34 0.46 0.52 0.53 0.55 0.57 0.58 0.61 0.64 0.66 0.68 0.69 0.66 0.61 0.50 0.41 0.37 0.35 0.34 0.33 0.33 0.37 0.39 0.44 0.44 0.41 0.40 0.36 0.37 0.47 0.53 0.55 0.59 0.61 0.63 0.65 0.67
0.23 0.26 0.26 0.28 0.27 0.25 0.26 0.24 0.24 0.24 0.29 0.31 0.40 0.45 0.49 0.53 0.56 0.62 0.65 0.67 0.68 0.66 0.69 0.69 0.63 0.57 0.44 0.39 0.38 0.37 0.35 0.34 0.35 0.38 0.40 0.41 0.36 0.35 0.36 0.34 0.36 0.43 0.50 0.52 0.51 0.53 0.55 0.57 0.60
0.30 0.29 0.27 0.28 0.27 0.25 0.23 0.24 0.25 0.26 0.31 0.34 0.40 0.43 0.48 0.52 0.54 0.60 0.64 0.64 0.66 0.68 0.69 0.69 0.61 0.52 0.42 0.38 0.38 0.37 0.37 0.36 0.37 0.40 0.41 0.40 0.38 0.36 0.36 0.35 0.37 0.43 0.47 0.48 0.46 0.44 0.44 0.47 0.52
0.32 0.26 0.26 0.26 0.28 0.25 0.25 0.20 0.20 0.26 0.28 0.30 0.34 0.40 0.46 0.50 0.56 0.58 0.64 0.63 0.65 0.68 0.70 0.67 0.61 0.52 0.40 0.38 0.37 0.37 0.36 0.36 0.37 0.40 0.42 0.40 0.38 0.37 0.37 0.36 0.37 0.42 0.43 0.41 0.39 0.37 0.37 0.37 0.38
0.28 0.28 0.21 0.26 0.27 0.26 0.25 0.18 0.23 0.27 0.26 0.27 0.32 0.38 0.43 0.48 0.52 0.61 0.65 0.65 0.67 0.68 0.68 0.67 0.58 0.47 0.40 0.39 0.38 0.36 0.36 0.36 0.36 0.40 0.43 0.40 0.38 0.37 0.37 0.37 0.38 0.41 0.40 0.38 0.36 0.34 0.33 0.32 0.32
0.27 0.21 0.23 0.25 0.26 0.25 0.22 0.18 0.23 0.25 0.25 0.26 0.29 0.34 0.37 0.43 0.50 0.59 0.66 0.67 0.68 0.70 0.69 0.66 0.59 0.49 0.44 0.42 0.40 0.37 0.36 0.35 0.36 0.39 0.43 0.40 0.38 0.37 0.37 0.37 0.40 0.40 0.38 0.37 0.36 0.35 0.34 0.32 0.32
0.22 0.23 0.24 0.22 0.24 0.23 0.21 0.19 0.21 0.23 0.24 0.24 0.28 0.32 0.36 0.38 0.44 0.55 0.64 0.68 0.70 0.71 0.71 0.69 0.61 0.55 0.51 0.45 0.42 0.39 0.36 0.35 0.36 0.38 0.42 0.42 0.39 0.38 0.37 0.38 0.41 0.40 0.37 0.36 0.35 0.34 0.35 0.34 0.34
0.28 0.25 0.23 0.26 0.27 0.24 0.21 0.21 0.22 0.23 0.23 0.23 0.25 0.29 0.33 0.37 0.47 0.55 0.63 0.67 0.68 0.71 0.70 0.68 0.61 0.59 0.55 0.48 0.40 0.37 0.34 0.35 0.35 0.37 0.40 0.42 0.40 0.41 0.39 0.38 0.40 0.39 0.36 0.36 0.38 0.38 0.37 0.39 0.41
0.28 0.24 0.24 0.28 0.28 0.26 0.25 0.23 0.26 0.26 0.23 0.25 0.25 0.26 0.32 0.37 0.44 0.51 0.57 0.62 0.65 0.67 0.69 0.68 0.65 0.62 0.59 0.54 0.48 0.42 0.40 0.38 0.38 0.38 0.39 0.42 0.42 0.43 0.44 0.40 0.38 0.39 0.37 0.37 0.39 0.39 0.39 0.42 0.46
0.28 0.27 0.27 0.28 0.30 0.28 0.24 0.20 0.23 0.26 0.26 0.26 0.27 0.28 0.30 0.35 0.40 0.47 0.52 0.57 0.63 0.65 0.68 0.68 0.67 0.65 0.63 0.59 0.55 0.46 0.42 0.41 0.36 0.36 0.37 0.40 0.43 0.45 0.46 0.45 0.41 0.40 0.39 0.37 0.39 0.42 0.42 0.41 0.45
0.27 0.31 0.29 0.29 0.26 0.21 0.26 0.15 0.20 0.23 0.23 0.25 0.27 0.28 0.29 0.30 0.38 0.45 0.50 0.55 0.60 0.65 0.70 0.71 0.70 0.68 0.67 0.64 0.57 0.50 0.40 0.34 0.37 0.36 0.38 0.39 0.42 0.44 0.46 0.48 0.45 0.41 0.40 0.39 0.40 0.43 0.45 0.47 0.42
0.29 0.33 0.30 0.29 0.25 0.25 0.21 0.18 0.18 0.22 0.19 0.22 0.26 0.29 0.31 0.32 0.33 0.38 0.50 0.55 0.62 0.67 0.69 0.72 0.72 0.71 0.69 0.66 0.61 0.57 0.50 0.43 0.40 0.40 0.37 0.37 0.39 0.42 0.44 0.46 0.48 0.44 0.41 0.40 0.40 0.41 0.43 0.45 0.45
0.36 0.29 0.28 0.27 0.25 0.17 0.19 0.18 0.16 0.18 0.19 0.22 0.26 0.29 0.32 0.35 0.34 0.37 0.49 0.59 0.62 0.68 0.69 0.71 0.70 0.70 0.70 0.68 0.64 0.61 0.57 0.50 0.40 0.39 0.38 0.37 0.38 0.40 0.42 0.45 0.46 0.49 0.46 0.42 0.41 0.41 0.41 0.42 0.43
0.33 0.25 0.20 0.19 0.18 0.16 0.22 0.19 0.18 0.23 0.24 0.25 0.27 0.29 0.33 0.37 0.35 0.39 0.47 0.55 0.60 0.61 0.64 0.68 0.69 0.68 0.70 0.69 0.67 0.64 0.62 0.57 0.47 0.41 0.39 0.39 0.38 0.38 0.40 0.42 0.44 0.46 0.48 0.49 0.47 0.44 0.43 0.43 0.44
0.26 0.26 0.20 0.14 0.15 0.16 0.23 0.16 0.18 0.26 0.28 0.29 0.30 0.32 0.34 0.37 0.40 0.42 0.47 0.52 0.56 0.59 0.61 0.63 0.66 0.67 0.69 0.69 0.67 0.67 0.65 0.61 0.55 0.49 0.44 0.43 0.43 0.43 0.43 0.42 0.44 0.46 0.48 0.48 0.49 0.49 0.49 0.49 0.48
0.28 0.24 0.27 0.20 0.19 0.16 0.17 0.18 0.23 0.25 0.25 0.27 0.28 0.31 0.33 0.36 0.40 0.43 0.48 0.51 0.54 0.57 0.59 0.62 0.65 0.67 0.68 0.68 0.69 0.67 0.67 0.63 0.59 0.56 0.52 0.48 0.47 0.47 0.47 0.46 0.44 0.44 0.46 0.47 0.48 0.48 0.49 0.49 0.50
0.30 0.31 0.22 0.22 0.15 0.13 0.15 0.16 0.14 0.19 0.21 0.25 0.27 0.29 0.32 0.36 0.39 0.42 0.46 0.50 0.54 0.57 0.61 0.64 0.66 0.66 0.68 0.69 0.68 0.67 0.67 0.66 0.63 0.61 0.57 0.54 0.51 0.50 0.48 0.48 0.48 0.47 0.46 0.46 0.46 0.46 0.48 0.48 0.49
0.25 0.23 0.25 0.25 0.21 0.16 0.14 0.15 0.23 0.22 0.23 0.25 0.28 0.32 0.34 0.36 0.39 0.42 0.45 0.50 0.53 0.57 0.60 0.62 0.64 0.65 0.65 0.67 0.67 0.67 0.67 0.67 0.66 0.64 0.62 0.61 0.59 0.56 0.53 0.51 0.50 0.49 0.48 0.47 0.45 0.44 0.45 0.44 0.46
0.32 0.27 0.26 0.19 0.18 0.19 0.20 0.19 0.26 0.25 0.26 0.28 0.30 0.33 0.36 0.39 0.40 0.42 0.44 0.47 0.50 0.53 0.57 0.59 0.60 0.60 0.62 0.63 0.64 0.64 0.66 0.65 0.63 0.63 0.62 0.62 0.59 0.59 0.56 0.54 0.51 0.50 0.50 0.50 0.48 0.46 0.45 0.44 0.43
Wind_Speed
6 6 6 6 7 7 8 5 2 4 4 2 2 1 3 1 1 3 8 9 11 10 10 10 10 8 6 7 6 6 5 4 4 4 4 4 4 4 4 5 5 5 5 5 6 7 7 8 9
7 7 7 6 7 9 7 5 7 3 3 4 3 3 2 3 3 7 8 11 12 11 10 9 9 9 7 6 6 5 4 3 3 3 3 3 3 3 4 4 5 5 5 6 6 7 7 7 7
8 8 7 7 9 9 4 8 6 6 5 4 4 2 3 3 6 7 10 12 12 11 10 9 9 8 7 6 5 4 4 3 3 2 2 2 2 2 3 4 3 4 5 5 5 6 6 7 7
9 9 9 10 10 10 6 7 8 8 5 5 4 3 4 4 6 8 11 11 12 11 11 10 9 8 7 6 5 4 4 3 2 2 2 2 2 2 3 3 2 3 3 3 4 4 5 6 6
10 10 11 11 11 8 9 8 10 9 7 7 6 5 4 5 7 10 11 11 12 12 11 10 9 8 7 6 5 5 4 3 3 2 2 2 2 2 2 2 2 2 2 2 3 4 5 6 6
11 10 11 13 12 10 10 10 11 10 8 7 7 6 6 8 10 11 11 11 12 12 12 11 10 9 8 7 6 5 4 3 2 2 1 1 2 2 2 2 2 2 3 2 2 2 3 4 5
11 12 13 11 11 11 11 11 12 11 10 9 8 7 8 11 12 12 12 11 12 13 13 12 11 10 8 8 7 6 5 4 3 3 2 1 2 2 2 2 2 2 2 3 3 3 3 2 3
12 11 12 12 13 13 11 12 11 12 10 9 9 9 10 13 13 13 13 12 12 13 13 13 13 11 10 9 8 7 6 5 4 4 3 2 2 2 2 2 3 2 2 3 3 3 3 2 2
12 13 14 14 13 12 11 14 12 12 11 11 10 9 9 14 14 14 14 13 13 14 14 15 14 13 12 10 10 9 7 6 6 5 5 4 4 3 3 3 3 4 4 4 4 4 4 3 2
13 14 14 11 12 12 13 14 13 13 13 12 11 10 12 14 14 14 15 15 15 15 16 16 15 14 14 13 12 10 10 9 8 7 7 6 6 4 4 3 3 4 4 5 5 5 4 4 3
13 14 12 12 12 13 13 15 14 15 15 15 15 14 14 15 15 15 15 15 15 15 16 17 16 15 15 14 13 12 11 10 9 9 8 8 7 7 6 6 5 5 5 5 5 5 5 5 4
13 14 13 12 13 13 14 14 15 16 12 12 13 16 16 16 15 16 15 15 15 15 16 16 16 16 15 15 14 13 12 11 11 10 10 9 9 8 8 7 6 6 6 6 6 6 5 5 5
16 13 14 13 13 14 13 15 15 16 14 13 14 16 17 17 16 16 16 15 15 15 15 16 16 16 16 15 15 14 13 12 12 11 10 10 10 9 8 8 7 7 7 7 7 6 6 5 5
13 14 14 14 14 14 15 15 14 15 14 14 15 16 17 18 18 17 17 16 15 15 14 14 15 16 16 15 15 15 14 13 13 12 12 11 11 10 9 9 8 8 8 7 7 7 6 6 6
14 14 15 16 15 14 15 16 18 14 14 15 15 16 17 17 18 18 17 16 15 15 14 13 14 14 15 15 14 14 14 14 13 13 12 12 12 11 11 10 9 9 8 8 8 7 6 6 5
16 16 15 14 16 14 15 15 17 14 15 14 15 15 16 17 17 17 17 16 15 14 14 13 13 13 14 14 14 14 14 14 13 13 13 12 12 12 12 11 11 10 9 9 8 8 7 6 5
18 18 20 15 17 15 18 15 14 15 16 16 16 15 16 16 17 17 17 16 16 15 14 13 13 13 13 13 13 13 13 13 13 13 13 13 12 12 12 11 11 11 10 10 9 8 8 7 6
20 21 19 19 17 19 19 20 15 16 17 18 17 17 17 18 18 18 18 17 17 16 15 14 13 13 13 12 13 13 13 13 13 13 13 13 13 12 12 12 12 11 11 11 10 9 9 8 7
19 19 20 15 15 18 22 20 20 17 17 17 18 18 18 18 19 19 19 18 18 17 16 15 14 13 13 12 13 13 13 13 13 13 13 14 14 13 13 13 13 13 12 12 11 11 10 9 9
22 22 21 15 17 19 19 22 22 20 20 19 19 18 19 19 19 20 20 20 20 19 18 17 16 15 14 14 13 13 14 14 14 14 14 14 14 15 14 14 14 14 14 13 13 13 12 12 12
24 25 23 20 17 19 19 22 24 21 22 21 20 20 20 21 21 21 22 22 21 21 20 19 18 17 16 15 15 14 14 15 15 15 15 15 15 16 16 16 16 16 16 15 15 15 14 14 14
24 22 22 20 19 19 19 20 25 24 23 23 22 22 22 23 23 23 24 23 23 22 21 21 20 19 18 17 16 16 16 16 16 16 16 16 17 17 17 17 17 18 18 18 18 17 17 16 16
19 17 20 20 21 18 19 18 20 19 24 24 23 22 22 24 25 25 25 25 24 23 23 22 22 21 20 20 19 18 17 17 17 17 17 18 18 18 18 19 19 19 19 20 20 20 19 19 18
17 15 14 15 17 20 21 21 21 21 22 23 22 22 22 22 25 26 26 25 25 24 24 23 23 23 22 21 20 20 19 19 19 19 19 19 20 20 20 21 21 21 22 22 22 22 22 22 21
20 18 14 16 17 20 16 19 25 16 17 20 20 20 20 20 22 23 25 25 25 25 24 24 24 23 23 22 22 21 21 20 21 21 21 21 22 22 22 23 23 23 24 24 24 25 25 25 25
22 20 18 18 18 17 15 21 18 18 19 18 19 19 19 19 20 22 23 24 25 25 24 24 24 23 23 23 23 22 22 22 22 22 23 23 23 24 24 25 25 25 26 26 27 27 27 28 28
21 23 18 16 16 16 17 18 17 17 17 18 18 18 18 18 18 19 21 22 23 23 23 23 23 23 23 23 23 23 23 23 23 23 24 24 25 25 25 26 27 27 28 28 29 29 30 30 30
20 17 17 18 17 18 19 18 18 19 19 19 19 18 18 17 17 17 18 18 19 20 21 21 22 22 23 23 23 23 24 24 24 24 25 26 26 26 27 27 28 29 29 30 31 31 31 32 32
18 18 18 16 19 17 17 17 16 19 20 20 19 19 19 18 18 18 18 18 18 19 19 20 20 21 21 22 23 24 24 24 25 25 26 26 27 27 28 28 29 30 31 32 32 33 33 34 34
19 20 21 19 19 19 18 19 15 15 17 18 18 18 18 18 18 18 18 18 18 18 18 19 19 20 21 22 22 22 23 23 24 25 25 26 27 28 28 29 30 31 32 33 34 35 35 36 37
Wind_Direction
212 205 205 211 216 226 243 212 227 187 185 189 180 181 125 100 196 178 167 169 166 163 165 167 169 163 155 153 148 142 133 124 116 107 103 99 92 86 93 95 100 87 87 81 73 65 62 62 60
211 206 211 225 235 225 221 206 207 185 175 165 166 191 185 176 177 167 169 170 168 165 164 165 168 171 165 162 156 152 147 137 127 121 110 106 103 91 96 101 103 90 89 85 78 70 65 62 62
213 213 224 228 234 241 242 209 188 183 189 203 194 195 211 202 174 179 172 172 174 172 171 169 170 171 171 169 165 164 158 151 139 128 125 118 117 105 113 119 108 102 100 95 80 73 66 62 65
218 221 233 239 233 240 248 214 200 198 215 221 197 193 194 212 189 186 174 178 181 181 180 177 178 177 174 172 173 171 169 161 154 145 142 139 130 126 135 136 132 122 109 105 88 78 68 66 69
222 233 237 240 239 241 232 231 212 211 213 214 226 211 206 204 193 177 183 186 187 186 187 186 184 182 181 178 178 176 171 166 153 142 134 135 136 142 149 152 151 161 142 133 116 87 88 70 73
231 238 239 238 233 232 236 225 218 219 218 220 221 212 217 206 192 189 190 192 192 194 194 194 191 190 190 187 189 189 188 182 178 167 145 140 147 137 151 167 162 166 182 167 154 129 112 82 77
238 237 243 249 242 235 233 223 221 222 223 226 225 232 222 210 199 198 197 197 197 198 199 200 199 199 199 202 204 202 202 205 210 207 194 173 162 150 179 179 187 193 190 193 188 163 144 105 84
237 241 243 241 240 241 227 222 233 229 227 235 239 236 227 208 203 203 203 204 203 204 204 206 208 210 214 216 215 214 218 224 225 221 217 207 202 203 210 218 215 203 189 176 178 178 162 140 109
236 240 244 243 241 242 230 227 231 236 232 236 238 245 223 201 205 206 208 210 211 212 214 215 217 219 220 220 220 223 227 229 230 231 228 235 233 238 242 235 233 228 222 218 208 194 185 169 144
235 242 248 250 246 245 233 233 228 230 230 235 232 231 208 205 210 211 213 215 217 218 218 219 221 224 224 225 228 230 233 236 238 237 237 238 238 241 234 239 236 226 221 214 203 201 206 206 203
237 244 246 247 246 248 237 235 233 235 235 235 229 219 213 212 214 217 218 219 220 220 221 222 224 226 226 228 230 233 235 237 239 240 239 238 238 243 246 246 243 232 224 218 216 218 215 208 206
244 246 247 246 245 244 238 239 238 236 241 242 237 219 215 217 217 218 217 218 219 220 222 223 225 227 228 229 232 233 235 237 239 240 240 240 243 244 243 242 239 235 231 224 222 217 213 211 211
243 244 245 247 247 245 242 239 242 238 236 238 225 221 220 221 219 219 218 218 218 220 222 225 226 227 229 231 232 233 235 237 239 240 242 242 241 241 240 238 237 233 230 225 220 217 217 216 215
246 246 247 246 245 244 243 240 241 234 230 229 225 223 223 222 219 218 218 218 219 220 221 223 226 228 229 231 232 234 236 237 239 241 242 241 240 239 237 235 233 232 229 225 220 216 216 216 218
244 245 249 246 245 244 242 243 238 231 227 225 225 223 221 219 217 217 216 216 216 217 217 219 222 225 226 228 231 234 236 237 239 239 240 240 239 238 236 234 232 231 226 219 214 213 213 214 219
244 249 250 241 238 240 235 247 224 224 221 220 217 217 215 214 214 215 213 213 213 213 214 217 222 223 224 227 230 233 234 236 237 238 238 238 237 236 234 233 231 227 222 217 215 215 216 218 221
242 252 244 248 240 237 231 243 225 228 224 219 216 215 215 213 214 215 212 212 212 213 214 217 219 221 224 226 230 232 234 235 236 237 236 235 233 233 231 229 225 222 218 217 217 218 219 219 223
245 245 251 247 239 236 234 240 233 227 225 223 220 218 218 216 216 216 213 213 214 214 216 217 220 221 224 227 230 232 234 235 235 236 235 233 232 231 229 226 222 221 220 221 221 221 223 225 229
259 253 252 244 242 239 237 241 233 226 224 222 220 219 219 219 217 217 216 215 215 216 216 218 220 222 226 230 231 234 235 236 236 236 234 233 231 229 228 227 226 226 226 226 225 226 227 231 234
248 249 248 250 242 240 240 242 237 228 228 228 226 224 223 221 218 218 219 218 219 220 221 223 225 227 231 234 236 237 236 237 237 236 234 234 231 230 230 229 229 230 230 230 231 232 234 239 250
245 246 246 250 240 244 249 246 235 234 233 232 234 235 231 227 224 223 223 223 223 224 225 227 229 231 234 236 238 239 240 240 240 238 237 236 235 234 234 234 234 234 234 235 236 239 241 250 256
245 246 248 239 239 246 240 250 237 229 231 233 232 233 234 233 230 228 226 226 226 227 228 230 232 234 237 238 240 240 242 241 241 239 239 238 238 238 238 238 238 238 239 240 241 244 248 254 258
247 243 240 240 243 249 237 245 238 232 234 233 233 237 237 237 234 231 229 229 230 230 232 233 235 237 239 240 242 243 244 244 242 242 241 242 241 242 242 242 242 243 244 244 245 247 250 255 259
231 233 238 240 240 245 239 238 242 235 239 230 234 237 239 238 235 231 231 230 231 232 233 235 237 238 240 241 242 244 245 245 245 245 244 245 246 245 246 246 246 247 247 248 249 251 253 257 260
237 229 236 240 239 247 241 241 243 238 241 234 233 235 236 235 231 229 228 229 230 232 234 236 237 238 240 241 242 244 247 247 248 247 247 248 248 249 249 248 249 249 250 251 252 253 256 258 261
230 233 233 240 239 245 241 243 246 240 238 237 235 235 234 233 230 229 229 229 230 232 234 236 237 238 239 241 243 245 248 250 250 250 251 251 251 252 251 251 252 252 253 254 255 256 258 259 261
231 234 238 242 249 252 240 246 245 237 233 231 229 229 228 228 228 227 227 228 229 231 233 235 236 238 239 241 244 246 249 251 252 252 252 253 253 254 254 254 254 255 256 256 257 259 260 261 262
235 232 230 236 239 246 242 249 246 234 230 228 227 225 225 225 223 222 222 223 226 229 232 235 236 239 240 242 245 248 251 253 254 255 255 255 255 256 256 257 257 258 258 258 259 260 261 262 263
227 231 235 242 244 249 253 253 260 239 229 225 224 223 224 225 224 224 224 226 229 231 232 235 237 240 242 245 248 251 253 254 255 256 257 257 257 258 259 259 260 260 260 261 261 262 262 263 263
239 237 232 240 242 249 257 256 259 254 231 226 222 223 223 223 223 224 225 227 229 231 234 237 240 243 246 248 250 252 253 255 256 258 258 259 260 261 261 262 263 263 263 263 263 263 264 263 263